Find Starlink 34793

NORAD ID: 65064 Int'l Des: 2025-165 Owner: SPXS Country: US Constellation: starlink operational
LEOCIRCULARRETROGRADESSO

リアルタイム位置

3D地球を読み込み中...

Starlink 34793について

説明を読み込み中...

次回通過

Passes for default location (London). Set your location on the main map for personalized predictions.

高度履歴

Loading altitude history...

軌道要素

1 65064U 25165J 26106.17812074 .00013205 00000-0 91735-3 0 9994
2 65064 97.6039 184.2184 0001206 202.4002 157.7173 15.05663733 40435
Epoch: Apr 16, 2026 • Age: 14 hours

現在のステータス

高度 553.8 km
速度 7.58 km/s
衛星直下点 -11.27°S, 109.85°W
打ち上げ日 Jul 31, 2025
運用期間 0.7 years
タイプ internet

技術仕様

分類 Payload
質量 575.00 kg
乾燥質量 530.00 kg
総質量 575.00 kg
長さ 0.30 m
直径 4.10 m
スパン 29.00 m
形状 Box + pan
製造者 SPXS
バスタイプ Starlink V2MO
フェーズステータス In Orbit
所有者/国 SPXS/US

Most Searched